Location: Dąbrowa Miętka
(51.3714°N, 18.6370°E)
Time: 05:11:16
(UTC+01:00)

ISS - Pass Details

Date: 31 January 2019
Orbit: 403 x 411 km, 51.6° (Epoch: 20 February)

Event Time Altitude Azimuth Distance (km) Brightness Sun altitude
Rises 19:47:06 0° 283° (WNW) 2,342 1.2 -30.2°
Reaches altitude 10° 19:49:12 10° 280° (W) 1,480 -0.1 -30.5°
Enters shadow 19:49:38 13° 279° (W) 1,304 -0.4 -30.6°
